Location: Unspecified
(0.0000°N, 0.0000°E)
Time: 04:21:03
(UTC+00:00)

S-56A Canister/Altair - Pass Details

Date: 30 November 2023
Orbit: 640 x 2488 km, 38.9° (Epoch: 24 February)

Event Time Altitude Azimuth Distance (km) Brightness Sun altitude
Exits shadow 01:26:25 11° 223° (SW) 5,088 11.6 -57.8°
Maximum altitude 01:30:44 12° 205° (SSW) 4,954 11.7 -57.0°
Drops below altitude 10° 01:35:48 10° 185° (S) 5,081 11.9 -56.1°
Sets 01:43:48 0° 158° (SSE) 5,831 12.5 -54.5°
